Terug naar catalogus

DELTA 1 DEB

ActiefPO
NORAD 12263·DEBRIS·🇺🇸 United States

Gelanceerd Mar 5, 1978 vanaf Vandenberg Space Force Base

Loading…

Volgende Passages (komende 24 uur)

TLE

VersSource: Space-Track

Epoch: Sep 14, 2026, 12:20 UTC

1 12263U 78026DG  26257.51415687  .00000413  00000-0  54560-3 0  9997
2 12263  98.9419   0.5810 0417530 138.7767 224.5697 13.34467615181699

Volg DELTA 1 DEB in realtime met AllMySat

Download on the App Store